TimeEDT,TemperatureF,Dew PointF,Humidity,Sea Level PressureIn,VisibilityMPH,Wind Direction,Wind SpeedMPH,Gust SpeedMPH,PrecipitationIn,Events,Conditions,WindDirDegrees,DateUTC
12:15 AM,32.0,24.8,75,29.35,1.8,NW,38.0,59.8,N/A,Snow,Light Snow,310,2012-10-30 04:15:00
12:35 AM,32.0,24.8,75,29.34,2.0,NW,36.8,62.1,N/A,Snow,Light Snow,310,2012-10-30 04:35:00
1:15 AM,32.0,23.0,69,29.33,1.5,NW,40.3,57.5,N/A,Snow,Light Snow,310,2012-10-30 05:15:00
1:35 AM,32.0,23.0,69,29.32,1.8,NW,36.8,55.2,N/A,Snow,Light Snow,310,2012-10-30 05:35:00
1:55 AM,32.0,23.0,69,29.33,1.5,NW,25.3,56.4,N/A,Snow,Light Snow,310,2012-10-30 05:55:00
2:15 AM,32.0,23.0,69,29.31,2.5,NW,35.7,70.2,N/A,Snow,Light Snow,310,2012-10-30 06:15:00
2:35 AM,32.0,23.0,69,29.30,2.0,WNW,36.8,67.9,N/A,Snow,Light Snow,300,2012-10-30 06:35:00
2:55 AM,32.0,23.0,69,29.30,3.0,NW,34.5,61.0,N/A,Snow,Light Snow,320,2012-10-30 06:55:00
3:15 AM,32.0,23.0,69,29.29,3.0,NW,33.4,58.7,N/A,Snow,Light Snow,320,2012-10-30 07:15:00
3:35 AM,32.0,23.0,69,29.27,3.0,NW,36.8,54.1,N/A,Snow,Light Snow,320,2012-10-30 07:35:00
3:55 AM,32.0,23.0,69,29.28,3.0,NW,27.6,50.6,N/A,Snow,Light Snow,310,2012-10-30 07:55:00
4:15 AM,32.0,23.0,69,29.26,2.5,NW,42.6,62.1,N/A,Snow,Light Snow,310,2012-10-30 08:15:00
4:35 AM,32.0,24.8,75,29.26,1.8,WNW,40.3,61.0,N/A,Snow,Light Snow,300,2012-10-30 08:35:00
4:55 AM,32.0,24.8,75,29.28,1.2,NW,34.5,58.7,N/A,Snow,Light Snow,310,2012-10-30 08:55:00
5:15 AM,32.0,24.8,75,29.28,1.5,NW,36.8,64.4,N/A,Snow,Light Snow,310,2012-10-30 09:15:00
6:15 AM,32.0,24.8,75,29.32,2.0,WNW,21.9,48.3,N/A,Snow,Light Snow,300,2012-10-30 10:15:00
6:35 AM,32.0,26.6,80,29.32,1.8,WNW,26.5,46.0,N/A,Snow,Light Snow,300,2012-10-30 10:35:00
6:55 AM,32.0,24.8,75,29.31,1.8,NW,29.9,57.5,N/A,Snow,Light Snow,310,2012-10-30 10:55:00
7:15 AM,32.0,24.8,75,29.31,1.8,NW,31.1,43.7,N/A,Snow,Light Snow,310,2012-10-30 11:15:00
7:35 AM,32.0,24.8,75,29.31,2.5,WNW,34.5,44.9,N/A,Snow,Light Snow,300,2012-10-30 11:35:00
7:55 AM,32.0,24.8,75,29.32,2.0,NW,28.8,44.9,N/A,Snow,Light Snow,310,2012-10-30 11:55:00
8:15 AM,32.0,23.0,69,29.33,2.5,NW,25.3,42.6,N/A,,Haze,310,2012-10-30 12:15:00
8:35 AM,32.0,23.0,69,29.34,3.0,NW,21.9,40.3,N/A,,Haze,310,2012-10-30 12:35:00
9:15 AM,32.0,23.0,69,29.35,4.0,NW,20.7,43.7,N/A,,Haze,310,2012-10-30 13:15:00
9:35 AM,32.0,23.0,69,29.34,4.0,NW,18.4,43.7,N/A,,Haze,320,2012-10-30 13:35:00
9:55 AM,32.0,24.8,75,29.33,4.0,NW,24.2,34.5,N/A,,Haze,320,2012-10-30 13:55:00
10:15 AM,32.0,24.8,75,29.32,4.0,NW,25.3,36.8,N/A,,Haze,320,2012-10-30 14:15:00
10:35 AM,32.0,24.8,75,29.33,3.0,NW,23.0,48.3,N/A,Snow,Light Snow,310,2012-10-30 14:35:00
10:55 AM,32.0,24.8,75,29.34,4.0,NW,16.1,33.4,N/A,,Haze,310,2012-10-30 14:55:00
11:15 AM,32.0,24.8,75,29.34,7.0,NW,17.3,31.1,N/A,,Overcast,320,2012-10-30 15:15:00
11:35 AM,32.0,24.8,75,29.35,5.0,NW,18.4,36.8,N/A,,Haze,310,2012-10-30 15:35:00
11:55 AM,32.0,24.8,75,29.36,7.0,NW,16.1,36.8,N/A,,Overcast,310,2012-10-30 15:55:00
12:15 PM,32.0,26.6,80,29.38,5.0,NNW,16.1,31.1,N/A,,Haze,330,2012-10-30 16:15:00
12:35 PM,32.0,26.6,80,29.39,5.0,NNW,10.4,40.3,N/A,,Haze,330,2012-10-30 16:35:00
1:15 PM,32.0,26.6,80,29.39,5.0,West,12.7,29.9,N/A,,Haze,280,2012-10-30 17:15:00
1:35 PM,32.0,24.8,75,29.39,5.0,NW,19.6,32.2,N/A,,Haze,310,2012-10-30 17:35:00
1:55 PM,32.0,24.8,75,29.40,7.0,NNW,12.7,21.9,N/A,,Overcast,330,2012-10-30 17:55:00
2:15 PM,32.0,26.6,80,29.40,3.0,WNW,10.4,32.2,N/A,,Haze,300,2012-10-30 18:15:00
2:35 PM,32.0,26.6,80,29.40,3.0,NNW,16.1,33.4,N/A,,Haze,330,2012-10-30 18:35:00
2:55 PM,33.8,26.6,75,29.40,10.0,WNW,23.0,32.2,N/A,,Overcast,290,2012-10-30 18:55:00
3:15 PM,33.8,26.6,75,29.41,7.0,WNW,13.8,27.6,N/A,,Overcast,300,2012-10-30 19:15:00
3:35 PM,33.8,26.6,75,29.42,7.0,West,9.2,20.7,N/A,,Overcast,270,2012-10-30 19:35:00
3:55 PM,33.8,28.4,81,29.43,3.0,WNW,13.8,23.0,N/A,,Haze,290,2012-10-30 19:55:00
4:15 PM,33.8,26.6,75,29.43,4.0,NW,10.4,23.0,N/A,,Haze,310,2012-10-30 20:15:00
4:55 PM,32.0,26.6,80,29.45,4.0,WNW,12.7,26.5,N/A,,Haze,300,2012-10-30 20:55:00
5:15 PM,32.0,28.4,87,29.45,3.0,NW,16.1,27.6,N/A,,Haze,310,2012-10-30 21:15:00
5:55 PM,32.0,26.6,80,29.47,4.0,WNW,17.3,31.1,N/A,,Haze,300,2012-10-30 21:55:00
6:15 PM,32.0,28.4,87,29.48,3.0,WNW,13.8,24.2,N/A,,Haze,290,2012-10-30 22:15:00
6:55 PM,32.0,28.4,87,29.49,4.0,WNW,21.9,27.6,N/A,Snow,Light Snow,300,2012-10-30 22:55:00
7:15 PM,32.0,28.4,87,29.49,4.0,WNW,20.7,36.8,N/A,,Haze,300,2012-10-30 23:15:00
7:35 PM,32.0,28.4,87,29.50,3.0,West,13.8,25.3,N/A,Snow,Light Snow,280,2012-10-30 23:35:00
7:55 PM,32.0,28.4,87,29.51,3.0,WNW,19.6,32.2,N/A,Snow,Light Snow,290,2012-10-30 23:55:00
8:15 PM,32.0,28.4,87,29.51,5.0,WNW,16.1,34.5,N/A,,Haze,300,2012-10-31 00:15:00
8:55 PM,32.0,28.4,87,29.51,5.0,NW,16.1,32.2,N/A,Snow,Light Snow,310,2012-10-31 00:55:00
9:15 PM,32.0,26.6,80,29.52,5.0,West,11.5,33.4,N/A,,Haze,280,2012-10-31 01:15:00
10:15 PM,32.0,26.6,80,29.53,7.0,WNW,27.6,47.2,N/A,,Overcast,300,2012-10-31 02:15:00
10:35 PM,32.0,26.6,80,29.54,7.0,WNW,17.3,35.7,N/A,,Overcast,290,2012-10-31 02:35:00
10:55 PM,32.0,28.4,87,29.53,5.0,NW,25.3,40.3,N/A,,Haze,320,2012-10-31 02:55:00
11:15 PM,32.0,28.4,87,29.52,5.0,WNW,20.7,40.3,N/A,,Haze,300,2012-10-31 03:15:00
11:35 PM,32.0,28.4,87,29.51,5.0,WNW,21.9,48.3,N/A,,Haze,300,2012-10-31 03:35:00
11:55 PM,32.0,28.4,87,29.52,5.0,WNW,24.2,39.1,N/A,,Haze,300,2012-10-31 03:55:00